Theta_e
296 297 297 297 297 296 298 299 300 302 302 302 302 301 300 298 298 289 286 294 291 284 284 287 287 283 282 277 275 278 277 277 275 270 273 274 272 269 267 270 268 265 263 262 262 261 265 277 275 276 277 273 272 270
296 296 296 297 297 296 297 298 299 301 301 302 301 301 299 299 298 292 283 289 293 286 284 288 286 287 286 286 280 277 278 275 278 272 270 274 271 272 270 268 273 270 272 274 269 269 275 274 280 278 274 277 276 277
295 295 296 296 297 296 296 297 298 300 301 302 300 301 300 299 298 291 283 284 286 281 278 283 282 284 286 286 287 281 281 282 279 279 275 272 274 277 271 270 269 273 278 276 274 275 276 276 275 277 277 278 278 278
294 294 295 296 296 296 296 296 298 299 300 301 302 301 300 299 298 290 284 283 281 275 271 270 284 282 285 286 287 286 282 285 285 281 279 270 271 274 274 274 276 274 276 276 275 276 276 278 278 277 277 276 277 277
294 294 294 295 295 296 296 295 297 298 300 301 302 300 299 299 297 286 283 283 282 280 267 269 279 282 283 283 285 287 287 284 281 278 274 267 272 272 276 275 275 275 274 273 272 275 275 276 277 277 275 274 275 274
293 294 294 295 295 295 296 295 297 297 299 301 301 299 300 299 293 286 276 283 283 279 269 263 275 278 281 282 283 285 286 284 283 278 275 274 281 275 263 268 275 276 277 277 274 275 275 275 275 276 273 274 273 272
293 293 293 294 295 295 295 295 297 298 299 300 301 301 301 297 291 283 279 283 286 280 269 263 269 279 279 280 280 282 284 284 281 279 269 278 279 280 270 270 274 275 275 274 274 273 273 274 272 272 272 272 271 270
293 293 293 294 294 295 295 295 296 297 297 299 300 301 299 296 293 287 287 290 284 275 269 263 267 273 280 276 273 278 276 276 273 269 271 275 276 275 267 272 275 274 273 271 272 271 272 272 270 270 270 269 268 269
293 293 294 294 294 295 294 295 295 297 298 299 300 297 291 286 284 285 292 287 282 278 266 259 264 266 278 275 273 273 274 269 266 265 270 275 269 267 271 273 273 272 270 271 269 267 266 266 267 266 265 265 266 267
292 293 293 294 294 294 295 295 295 294 299 295 289 283 279 284 293 291 285 281 280 273 264 262 258 264 276 274 271 272 274 271 261 265 267 265 263 266 272 270 272 271 270 267 265 266 263 262 260 263 262 264 264 265
293 293 293 293 294 294 294 293 293 297 294 283 278 277 284 292 283 279 273 272 269 268 271 267 264 271 274 266 263 264 268 260 262 262 264 259 261 269 268 265 264 266 265 263 262 261 259 260 259 260 261 259 261 261
293 293 293 293 294 294 294 293 295 286 281 282 283 286 284 279 276 273 266 264 262 264 261 267 269 270 270 270 266 265 263 266 258 260 261 258 267 267 267 264 263 261 260 260 257 259 260 262 259 258 259 260 260 260
291 292 293 293 294 295 295 293 292 293 288 282 279 275 274 268 265 262 260 260 259 259 262 268 270 273 271 271 266 265 260 259 258 262 260 264 266 264 264 262 263 258 257 256 256 254 253 256 256 253 257 258 258 257
291 292 293 294 295 294 294 294 292 286 280 275 272 266 265 260 260 261 262 263 265 265 267 270 270 273 273 272 271 268 259 260 256 256 259 263 266 267 264 259 262 264 262 260 259 256 255 254 257 256 255 256 255 256
293 293 294 295 295 295 293 290 287 279 274 269 268 263 261 257 255 255 254 261 263 266 269 270 269 271 269 269 268 260 259 258 259 260 262 265 266 269 265 259 261 260 259 260 257 256 256 254 253 257 257 254 251 252
293 294 293 294 294 292 290 286 278 273 268 266 259 260 255 257 262 262 256 265 263 269 266 267 263 265 266 266 261 259 260 257 263 261 263 262 262 261 261 263 266 265 261 264 261 255 255 253 256 257 253 254 252 250
291 285 293 292 291 290 289 278 276 267 264 261 261 252 255 254 261 258 257 261 265 266 264 261 262 263 262 260 259 260 262 267 265 264 261 263 268 267 265 260 260 261 261 261 258 256 257 252 247 249 254 254 250 251
287 289 291 290 286 283 276 274 268 264 262 261 262 259 252 254 255 254 256 260 266 260 259 262 262 257 258 259 259 263 265 264 258 259 261 261 260 260 258 264 264 262 263 261 260 257 251 250 251 257 255 251 250 250
288 289 290 289 284 276 271 269 266 261 260 259 262 258 255 258 255 257 266 258 257 259 263 257 257 256 259 260 263 261 259 259 263 262 260 260 260 263 265 260 260 257 257 257 254 259 259 257 259 256 255 251 254 251
291 289 287 286 283 271 266 265 263 263 260 262 259 258 255 256 260 267 267 260 264 263 264 261 261 261 262 262 263 265 263 260 259 259 262 261 262 260 261 262 263 262 258 254 254 252 250 253 252 254 252 254 253 253
285 285 284 277 269 267 264 260 261 259 259 260 255 256 258 259 264 264 269 262 267 262 265 263 262 263 259 257 256 257 258 260 263 265 266 266 264 261 259 259 255 252 256 255 258 259 256 258 259 253 254 252 251 251
282 284 271 273 266 262 262 259 262 259 259 256 257 253 256 258 255 257 261 263 268 265 264 261 261 261 259 262 264 259 262 259 258 257 258 258 261 259 261 256 253 257 257 259 260 261 262 261 253 253 254 253 254 253
284 280 270 267 267 263 262 260 259 255 259 258 254 257 255 257 254 257 261 258 261 261 258 260 257 252 260 253 251 254 252 254 259 259 257 257 254 253 254 254 253 257 262 264 258 261 262 256 256 257 257 258 257 255
281 269 266 261 259 258 256 255 253 254 256 257 255 255 253 253 258 261 259 255 261 250 252 255 252 258 255 253 256 263 255 254 252 249 249 251 252 254 254 257 256 260 263 265 258 257 256 258 259 259 258 258 257 257
270 267 264 260 254 258 256 256 253 254 255 259 255 255 254 256 261 261 257 259 253 255 259 250 250 255 263 262 257 255 248 254 255 255 252 254 252 252 254 257 261 262 259 256 257 258 260 261 260 259 258 258 258 257
266 264 264 261 255 260 258 256 255 256 252 252 253 248 248 260 259 256 257 260 256 257 258 258 260 252 252 258 261 253 255 251 252 252 252 254 255 255 256 257 258 258 255 258 258 260 260 260 260 259 259 258 258 258
268 260 256 252 257 257 255 254 254 257 256 258 255 252 253 254 255 260 259 256 260 261 255 254 260 263 264 254 250 250 251 254 255 255 255 256 258 259 258 258 258 258 258 260 260 261 260 260 260 259 259 259 259 258
265 259 261 258 254 254 257 256 258 260 261 255 257 255 258 259 262 263 263 256 250 246 247 245 246 248 250 250 251 253 252 252 254 256 257 259 261 260 259 262 263 266 263 263 264 263 262 261 260 259 258 257 257 257
261 256 261 252 251 252 260 261 262 262 262 262 262 258 260 261 259 256 254 248 243 248 252 252 251 246 248 249 250 251 253 256 257 257 259 260 260 260 261 262 262 263 263 263 265 263 262 261 259 258 257 255 255 255
259 261 262 260 262 262 262 260 259 254 254 256 253 256 258 257 253 244 245 245 250 254 252 251 249 252 252 253 253 253 254 258 259 260 260 260 259 260 260 261 261 261 262 262 262 261 262 258 258 256 255 254 253 252
258 261 263 265 265 255 250 251 251 251 252 250 245 251 255 249 252 244 245 244 245 245 249 249 249 249 252 252 253 254 256 258 261 262 261 261 260 260 260 260 260 260 259 259 258 258 257 256 256 255 254 252 252 251
260 264 265 264 263 250 248 253 255 257 254 252 252 244 248 251 255 255 244 243 245 247 248 249 251 253 253 254 256 258 261 261 262 262 261 261 260 260 260 260 260 259 259 258 258 257 257 256 255 253 252 250 249 247
258 259 259 259 258 256 252 256 255 257 252 248 248 242 243 249 259 252 245 243 246 247 248 249 252 253 255 258 259 260 261 262 262 264 263 262 261 261 260 259 259 259 258 257 256 256 254 253 251 249 247 246 244 243
Wind_Speed
26 23 22 21 20 20 18 18 16 19 17 21 21 23 20 18 17 6 2 3 2 1 1 2 1 4 2 2 5 4 4 1 1 2 3 3 3 4 2 4 6 7 7 4 2 1 6 5 3 1 4 3 4 4
25 25 23 23 20 19 19 17 14 14 14 22 25 25 21 20 17 8 2 0 0 3 2 3 4 4 3 2 5 1 2 4 4 3 0 2 1 3 3 3 2 3 5 2 8 7 5 5 7 2 2 4 6 6
25 24 24 23 21 20 20 18 14 16 16 15 23 27 24 21 19 9 3 4 4 2 3 1 1 4 3 5 4 4 1 4 2 3 3 2 2 1 3 4 1 3 2 2 4 4 4 7 1 2 3 5 9 8
26 24 24 22 22 20 19 21 14 16 17 19 21 20 22 22 20 10 4 3 4 3 4 4 2 2 4 2 3 2 5 5 5 2 2 2 2 2 3 2 2 3 1 3 5 4 8 2 7 9 7 8 11 11
26 25 24 22 22 21 20 18 18 14 16 17 20 20 22 23 21 6 3 2 3 5 5 2 1 3 3 3 1 2 4 6 2 2 2 3 1 3 0 1 4 4 5 4 4 3 3 7 6 12 14 13 14 14
25 24 24 23 22 21 20 18 19 15 16 19 24 26 28 26 22 4 3 2 3 4 6 2 4 3 3 2 1 3 1 2 2 3 3 1 2 3 3 2 2 3 1 2 3 1 5 12 10 7 13 15 14 14
24 23 23 23 21 21 20 18 17 17 15 21 22 24 28 30 7 4 6 4 9 4 5 3 2 1 2 2 1 1 1 1 2 2 1 2 2 3 2 3 4 4 3 4 1 5 2 1 5 12 11 13 11 10
21 20 21 21 21 19 19 17 15 14 13 24 23 22 27 21 15 4 2 12 6 7 5 5 1 1 1 0 2 2 2 2 4 2 1 2 1 2 3 6 4 4 2 1 5 3 5 8 7 9 10 11 12 11
17 19 20 20 17 19 17 20 6 12 13 19 31 30 8 4 3 3 14 12 3 4 5 4 6 4 1 1 2 3 2 2 2 1 2 1 1 4 7 6 6 5 4 3 5 5 3 2 8 8 8 9 9 12
10 13 14 16 16 16 19 17 12 4 25 35 11 5 3 1 26 13 4 2 3 4 4 3 1 2 2 1 2 2 1 1 1 4 1 2 5 4 4 5 5 6 6 5 3 5 4 4 4 8 7 8 8 11
7 8 9 9 11 13 13 12 15 21 23 4 4 4 1 12 4 3 3 3 2 2 1 2 3 5 1 4 4 1 3 1 2 5 5 2 5 5 6 5 4 5 6 6 4 3 4 6 7 8 10 5 7 7
10 11 11 10 13 16 13 6 41 9 3 9 11 7 4 3 3 5 2 2 2 6 2 4 3 3 2 3 4 2 3 2 3 1 4 4 6 3 6 5 4 5 5 2 4 4 4 6 5 6 8 8 6 7
4 4 12 4 7 19 36 26 18 34 19 5 7 5 3 3 5 7 6 4 2 4 4 3 3 3 2 2 3 3 4 5 0 2 5 6 3 2 4 4 3 2 3 1 3 4 4 6 5 3 8 6 7 7
6 9 9 13 31 28 32 32 20 9 9 5 5 5 4 1 5 6 6 5 3 3 5 3 3 2 2 3 2 3 1 3 3 0 7 4 6 6 6 3 5 5 6 5 7 5 5 5 7 6 6 6 5 7
9 9 8 28 27 30 26 17 9 5 5 5 4 4 3 2 1 1 1 2 2 2 3 3 3 2 1 3 2 4 3 3 6 6 5 5 5 6 5 4 5 5 5 6 4 4 5 4 4 8 7 5 4 5
6 11 20 33 30 23 15 7 6 4 5 5 6 5 2 4 1 1 1 1 2 3 2 4 4 4 1 4 4 6 7 7 5 5 4 3 4 4 4 5 7 6 6 8 6 5 4 5 6 7 7 6 5 5
11 6 30 30 25 19 18 6 5 8 5 5 1 1 3 2 5 4 4 3 1 3 3 4 4 6 3 3 1 4 6 4 4 4 3 5 7 7 6 4 5 6 7 7 5 5 6 2 2 3 7 5 4 4
13 17 24 21 12 9 5 6 5 5 5 0 3 3 1 2 3 1 2 2 4 3 3 4 5 4 5 7 4 5 4 2 2 1 3 4 5 5 5 8 6 6 8 6 6 4 2 2 4 7 6 4 3 3
11 10 17 16 9 6 5 4 5 4 2 2 1 1 1 1 1 0 1 2 1 2 6 4 5 4 5 5 4 2 2 3 4 4 4 5 5 6 7 5 6 5 6 6 5 7 6 7 7 4 4 3 4 3
18 16 15 14 8 5 5 3 2 5 2 1 2 2 2 2 0 1 3 2 2 3 3 1 6 5 6 5 5 5 4 4 4 1 5 4 6 6 8 8 7 6 4 4 4 3 2 4 4 5 4 4 4 4
8 4 12 8 5 6 5 1 4 2 2 3 2 2 1 2 3 1 2 0 3 3 3 5 5 5 4 2 2 3 3 5 6 6 6 5 2 5 3 4 2 2 4 3 5 5 6 8 4 4 5 4 4 3
2 7 4 5 5 5 5 2 3 1 4 2 3 2 3 2 1 1 2 1 4 5 5 5 5 4 2 5 6 7 6 6 3 2 1 2 3 3 3 3 2 4 5 7 6 7 7 6 4 4 5 4 3 3
7 3 4 4 6 6 1 3 4 4 4 2 3 3 2 1 3 1 1 3 6 5 3 4 4 1 4 2 2 4 5 5 4 5 3 4 3 3 3 4 3 4 7 7 4 6 6 5 6 7 6 6 5 3
4 4 4 3 4 3 2 3 2 3 3 3 3 0 2 2 2 1 4 5 6 2 1 4 3 3 3 2 3 5 4 4 2 3 3 3 2 4 4 4 4 6 8 8 2 3 3 5 9 9 9 9 7 6
6 3 6 1 2 5 4 2 2 4 3 2 3 1 2 1 3 2 4 7 4 4 4 2 1 3 5 5 4 4 4 4 4 4 3 4 2 2 3 4 5 6 3 3 5 6 5 6 7 8 9 9 10 8
6 4 5 7 1 5 6 5 5 6 4 3 5 2 1 3 3 7 6 6 5 5 5 6 6 2 4 8 5 2 4 4 4 2 4 3 3 3 3 4 4 6 3 4 2 4 6 6 7 9 8 10 11 11
6 6 1 1 4 5 3 2 2 4 5 6 5 4 4 3 7 8 5 4 5 5 4 3 5 6 5 1 2 2 2 3 4 4 3 2 2 3 3 4 6 5 2 4 3 6 8 8 9 8 8 8 8 8
6 7 10 6 2 0 6 3 5 8 6 3 6 5 10 11 9 6 7 2 1 1 2 1 1 2 3 2 3 4 1 1 1 1 2 2 3 2 3 4 5 8 2 2 5 6 7 8 9 10 10 9 8 7
3 3 6 4 2 3 7 8 8 6 6 6 7 5 7 6 5 3 3 2 2 2 1 0 2 1 3 2 2 1 3 4 4 2 2 1 0 0 2 3 3 3 3 5 9 9 11 10 11 11 11 10 8 8
4 4 5 6 9 9 6 6 3 2 1 1 1 3 3 4 4 1 3 2 2 4 2 3 3 4 3 4 2 1 2 3 2 2 2 0 1 2 2 2 3 4 5 7 9 12 17 14 14 10 10 8 7 7
2 3 4 4 5 1 1 1 2 1 1 1 1 3 5 5 6 0 1 1 1 3 3 1 1 2 4 3 3 3 1 2 4 4 3 3 4 3 2 4 5 6 7 8 8 8 10 11 10 11 11 11 9 7
2 3 3 6 3 2 0 1 2 1 1 1 2 1 4 3 5 3 3 2 3 1 3 2 2 3 3 2 2 2 3 4 5 4 7 5 5 5 6 5 6 6 8 9 9 9 12 13 10 11 11 11 9 7
1 1 2 3 1 2 0 2 1 1 0 2 4 2 3 3 8 2 3 1 2 2 2 3 3 2 3 4 4 3 4 5 8 10 11 11 10 9 6 6 6 8 10 9 10 11 13 16 12 11 10 9 7 6
Wind_Direction
277 269 270 264 267 260 260 262 273 246 239 209 203 198 194 193 190 128 226 147 210 159 355 22 145 133 99 116 143 161 98 257 96 147 164 185 198 195 136 157 182 166 146 195 93 116 279 198 148 296 245 311 247 249
269 272 266 262 253 260 253 262 273 267 232 203 200 199 190 190 185 129 165 32 279 92 115 41 62 43 30 35 127 106 171 151 182 95 319 112 123 160 135 251 181 233 184 189 178 214 221 199 234 11 179 275 298 302
267 264 265 260 252 249 252 249 255 281 226 221 181 203 187 184 176 141 143 149 77 111 10 95 84 19 37 22 309 128 294 144 121 170 151 154 225 176 194 234 221 254 182 221 16 293 259 289 97 155 294 309 317 311
263 258 258 255 251 245 247 242 249 268 227 223 213 188 188 177 166 141 144 160 91 90 124 275 306 31 323 343 8 320 139 89 113 80 106 142 184 168 204 184 269 181 125 199 272 304 326 321 29 8 346 328 328 318
259 252 250 246 244 239 237 242 242 257 240 223 196 163 174 175 154 111 104 179 152 131 174 190 213 343 310 336 108 302 136 119 116 113 134 228 189 102 175 249 213 187 184 164 229 174 221 276 329 337 342 336 331 327
254 244 242 239 234 233 231 237 231 239 241 210 181 179 189 165 138 123 38 253 187 126 99 88 289 308 336 306 150 159 155 80 108 131 207 218 206 118 113 226 168 152 244 190 244 41 255 280 291 6 334 330 330 324
243 239 233 230 226 226 223 234 224 232 237 208 193 185 180 152 131 118 188 182 149 99 91 60 7 346 303 331 35 65 87 115 89 126 179 167 221 183 120 221 208 175 226 265 73 339 316 328 326 324 322 321 315 299
225 229 220 220 221 218 222 220 225 241 232 199 194 172 154 128 97 67 16 112 90 91 71 112 306 306 316 118 85 345 76 57 14 154 20 176 329 40 241 231 142 146 282 159 180 160 247 297 303 312 319 321 328 336
217 210 212 216 208 210 222 207 234 216 226 174 133 123 107 68 101 108 118 88 62 108 124 97 138 203 208 143 132 16 88 110 274 126 244 195 163 228 217 171 175 164 165 213 307 304 327 296 299 303 314 324 330 332
208 203 205 201 201 221 202 203 227 248 174 120 93 70 82 129 119 111 53 69 40 352 38 122 8 166 156 73 30 67 22 113 150 249 14 111 248 257 229 181 142 158 155 133 39 342 332 303 301 317 306 300 299 310
158 149 176 205 198 192 183 192 276 162 121 51 85 82 168 100 67 46 79 94 17 19 194 158 167 139 331 120 186 188 168 125 163 258 134 288 276 232 186 167 177 141 146 181 189 213 218 235 280 300 308 285 288 294
144 169 161 171 178 187 201 143 134 130 125 124 105 90 79 64 71 95 58 355 89 219 269 151 181 162 153 111 102 236 149 152 223 245 82 270 250 242 150 175 186 166 152 173 187 253 276 280 267 281 290 294 293 294
170 164 167 160 190 140 127 141 110 119 107 63 63 74 83 319 70 137 188 270 280 187 199 172 136 128 101 86 74 106 94 210 26 64 228 230 270 256 179 154 180 185 137 98 291 256 260 281 293 244 293 278 289 304
206 174 153 138 131 119 118 122 115 52 60 80 111 98 124 257 237 184 178 178 210 126 149 125 101 127 134 95 137 111 216 84 58 262 238 241 209 192 195 182 120 211 202 222 251 257 272 270 288 294 271 283 296 298
174 178 222 137 125 123 114 111 90 50 71 79 70 135 181 220 7 249 262 92 238 156 121 95 69 88 75 105 62 98 50 251 208 228 237 222 188 171 200 195 212 222 218 238 230 241 262 269 284 293 287 285 272 281
115 110 125 129 124 114 114 75 42 74 61 83 69 87 353 58 350 159 256 129 216 131 76 55 106 82 184 135 96 204 137 219 239 221 234 144 172 207 213 210 222 223 210 237 237 227 246 261 260 268 307 292 259 240
81 71 112 112 108 82 48 61 41 44 98 63 4 13 143 102 165 197 152 211 135 80 166 120 113 194 96 62 231 196 205 225 195 232 224 194 182 207 215 227 237 225 232 232 233 234 240 229 343 330 288 276 240 244
87 104 105 97 84 63 36 40 71 63 56 342 96 265 260 135 132 273 240 228 113 133 111 196 121 92 159 164 244 229 237 281 237 256 247 231 231 247 207 228 246 227 237 239 229 249 228 256 248 252 247 254 263 254
106 104 74 65 75 82 70 14 64 105 198 194 154 93 113 133 220 107 101 52 95 141 107 47 84 179 218 216 211 227 232 196 202 237 248 261 242 235 244 228 252 254 236 225 208 227 221 208 224 216 220 176 220 216
105 73 63 54 59 79 63 352 64 92 111 219 54 49 93 109 302 49 88 42 98 89 45 178 209 210 185 217 194 199 194 168 135 348 276 250 230 224 234 225 231 233 226 245 239 196 255 276 231 220 198 200 184 226
61 24 31 48 43 60 85 25 38 133 147 81 279 69 77 12 60 75 137 355 65 195 235 218 221 233 213 247 180 154 176 163 195 192 225 274 239 203 237 232 233 204 213 214 227 242 195 226 229 190 179 202 195 185
101 70 69 19 72 28 73 357 127 206 73 177 47 27 69 89 126 257 297 66 230 230 200 192 222 209 230 256 228 197 212 196 238 263 303 61 288 294 278 235 141 242 217 228 214 236 242 229 173 168 162 170 146 127
92 62 58 49 73 45 283 39 68 348 102 246 29 55 4 20 243 301 234 227 254 234 209 213 240 205 221 317 331 275 198 179 234 224 234 232 239 255 256 254 221 247 277 269 198 224 234 177 177 161 148 148 143 128
62 67 96 97 80 185 25 15 32 61 47 55 81 305 300 213 303 51 247 256 250 305 237 223 153 303 333 343 259 248 218 175 198 300 219 174 241 263 214 232 234 236 247 277 246 235 206 194 173 163 155 155 151 151
88 271 107 267 333 85 75 59 13 64 138 171 111 240 251 192 140 207 243 266 263 249 242 164 206 207 215 259 274 253 218 160 175 220 253 191 203 326 283 234 240 248 226 214 241 225 209 177 165 160 152 152 150 147
199 211 160 189 238 144 183 147 192 186 139 155 216 236 32 129 140 234 232 232 227 220 212 192 191 179 259 212 249 262 236 175 119 133 275 167 168 187 246 276 298 297 208 205 196 176 156 151 147 147 144 141 143 135
201 223 263 330 110 113 75 29 72 118 163 185 177 149 114 156 229 243 262 225 213 220 210 186 168 189 221 223 253 237 179 161 161 187 194 204 215 208 215 259 270 244 255 206 176 161 154 147 145 139 128 123 130 131
197 164 162 184 118 124 136 152 167 189 200 184 107 173 179 195 226 228 211 251 235 149 110 101 133 137 143 181 168 127 113 156 108 6 312 241 225 245 261 262 253 268 223 143 131 135 139 137 131 129 124 118 108 99
167 195 123 124 121 195 202 180 199 215 163 162 168 190 225 220 230 222 243 199 129 98 101 181 287 57 48 36 61 137 137 146 136 151 234 270 265 275 349 351 19 52 71 91 107 109 113 115 117 111 106 101 93 88
219 187 116 159 163 207 216 174 201 100 66 82 353 326 296 266 246 134 111 116 155 208 204 178 174 154 182 165 213 284 239 188 191 166 196 130 4 83 42 44 71 80 92 100 98 96 97 100 99 95 95 96 95 98
98 150 137 160 211 188 27 43 123 97 91 93 8 175 250 309 306 3 171 245 114 87 84 54 297 208 157 166 151 139 247 215 187 170 123 114 111 102 78 70 74 84 93 100 105 110 111 103 105 107 102 101 104 106
157 218 171 185 186 29 23 121 122 146 40 6 264 334 317 3 272 267 328 53 54 62 247 192 166 259 196 193 157 115 98 132 144 137 131 122 106 105 101 100 99 104 103 103 106 109 108 109 108 106 106 105 101 100
85 65 68 118 162 134 173 135 137 198 235 261 257 210 239 198 238 264 313 162 160 203 257 237 240 253 155 129 117 101 90 105 122 121 117 116 117 113 105 104 106 107 106 103 102 108 106 105 102 103 103 105 106 101